STARLINK-33791, 63594

Orbit data source: Space-Track

STARLINK-33791, 63594 is a payload satellite owned by SpaceX/Seattle (US) in LEO that was launched on Mon, 14 Apr 2025 UTC via an FALCON 9 launch vehicle from the Air Force Eastern Test Range (AFETR). Payload-class satellites include a variety of spacecraft equipped with specific instruments for various scientific and technological missions. These include communications satellites like Starlink; space stations such as the ISS; scientific satellites like the Hubble; Earth observation satellites from companies like Planet Labs, Umbra, and HawkEye 360; GPS; miniature CubeSats for education and research; and military/defense satellites.

Loading next visibility...
Identifier
63594, 2025-076AB
Orbit
LEO
Country
Flag of USUS
Related business
Manufacturer
SpaceX/Seattle
Mission
Operational Commercial Communications
Bus & Motor
STARLINK V2MO, Unknown motor
Mass
575 kg wet, ~530 kg dry
Launch date (UTC)
2025-04-14 (6 months ago)
Launch vehicle
FALCON 9
Launch site
Air Force Eastern Test Range (AFETR)
Object type
Payload
Rocket body
Debris
Shape & HBR
Box + 2 Pan, 17.7 m
Radar Cross Section
36.964 m², Large (>1 m²)

Expand to show TLE details & history
Last TLE update: 7 hours ago

TLE from 7 hours ago
0 STARLINK-33791
1 63594U 25076AB  25299.87990982  .00038869  00000-0  14130-2 0  9991
2 63594  43.0076 357.5723 0002179 271.7822  88.2780 15.27614804 31363
Epoch: 2025-10-26T21:07Z
TLE epoch observation values (Epoch: 2025-10-26T21:07:04.208Z)
Latitude
-0.00003°
Longitude
5.31497°
Altitude
482.677 km
Speed
7.626 km/s
True Right ascension
23h 50m 17s
True Declination
0° 00' 00"
Sunlit
Object was in full shadow at epoch
Visualization orbit readout
Latitude
Unknown
Longitude
Unknown
Altitude
Unknown
Speed
Unknown
Apparent Right ascension
Unknown
Apparent Declination
Unknown
Sunlit
N/A
Visualization observer readout
Local Sidereal Time
23:20:46
Azimuth
Unknown
Elevation
Unknown
Doppler factor
Unknown
Orbital elements
Apogee altitude
486.384 km
Perigee altitude
483.393 km
Semi-major axis
6,863.026 km
Eccentricity
0.00022
Inclination
43.0076°
RAAN
357.5723°
Arg. of periapsis
271.7822°
True anomaly
88.30296°
Mean anomaly
88.278°
Eccentric anomaly
88.29048°
Mean motion
3.81742 °/min
Orbital period
94.3 mins
BSTAR
0.001413
Loading maneuver chart data...
Computing Atmospheric mass density...
Loading historical data...
Loading historical data...
Loading historical data...
Loading historical data...
Loading historical data...
Loading historical data...
Loading historical data...

Documentation

Showing up to 5 results
|